Regional Weather Roundup
Issued by NWS

Home | Current Version | Previous Version | Graphics & Text | Print | Product List | Glossary On
Versions: 1 2 3 4 5 6 7 8 9 10 11 12 13 14 15 16 17 18 19 20 21 22 23 24 25 26 27 28 29 30 31 32 33 34 35 36 37 38 39 40 41 42 43 44 45 46 47 48 49 50
000
ASUS43 KBIS 061502
RWRND

NORTH DAKOTA REGIONAL WEATHER ROUNDUP
NATIONAL WEATHER SERVICE BISMARCK ND
1000 AM CDT FRI MAY 06 2016

NOTE: "FAIR" INDICATES FEW OR NO CLOUDS BELOW 12,000 FEET WITH NO
SIGNIFICANT WEATHER AND/OR OBSTRUCTIONS TO VISIBILITY.


NDZ001>003-009>011-017-061600-
NORTHWEST NORTH DAKOTA

CITY           SKY/WX    TMP DP  RH WIND       PRES   REMARKS
WILLISTON      MOSUNNY   58  42  55 N20       30.06
MINOT          SUNNY     69  43  38 N23G33    29.95R
MINOT AFB      MOSUNNY   64  45  50 N21G26    29.95R
$$

NDZ018>021-031>035-040>046-061600-
SOUTHWEST NORTH DAKOTA

CITY           SKY/WX    TMP DP  RH WIND       PRES   REMARKS
BISMARCK       MOSUNNY   70  49  47 N12       29.88
DICKINSON      SUNNY     62  44  51 N21G26    29.98R
GARRISON         N/A     66  47  50 N23G37    29.93R
HETTINGER ARPT MOSUNNY   67  46  47 N28G37    29.95R
$$

NDZ004>008-012>016-024-026-027-054-061600-
NORTHEAST NORTH DAKOTA

CITY           SKY/WX    TMP DP  RH WIND       PRES   REMARKS
GRAND FORKS    PTSUNNY   68  45  43 N29G37    29.78R
GRND FRKS AFB  SUNNY     66  45  45 N23G33    29.79R
DEVILS LAKE    SUNNY     63  44  50 N28G36    29.84R
$$

NDZ022-023-025-028>030-036>039-047>053-061600-
SOUTHEAST NORTH DAKOTA

CITY           SKY/WX    TMP DP  RH WIND       PRES   REMARKS
FARGO          SUNNY     76  50  40 SW12      29.74S
JAMESTOWN      MOSUNNY   74  46  36 NW18      29.79R
$$




USA.gov is the U.S. government's official web portal to all federal, state and local government web resources and services.